TimeEDT,TemperatureF,Dew PointF,Humidity,Sea Level PressureIn,VisibilityMPH,Wind Direction,Wind SpeedMPH,Gust SpeedMPH,PrecipitationIn,Events,Conditions,WindDirDegrees,DateUTC
12:15 AM,64.4,60.8,88,30.02,10.0,Calm,Calm,-,N/A,,Overcast,0,2013-10-12 04:15:00
12:35 AM,64.4,60.8,88,30.02,10.0,Calm,Calm,-,N/A,,Overcast,0,2013-10-12 04:35:00
12:55 AM,64.4,60.8,88,30.02,10.0,Calm,Calm,-,N/A,,Overcast,0,2013-10-12 04:55:00
1:15 AM,66.2,60.8,83,30.02,10.0,North,3.5,-,N/A,,Overcast,10,2013-10-12 05:15:00
1:35 AM,66.2,60.8,83,30.02,10.0,Calm,Calm,-,N/A,,Overcast,0,2013-10-12 05:35:00
1:55 AM,66.2,60.8,83,30.02,10.0,Calm,Calm,-,N/A,,Overcast,0,2013-10-12 05:55:00
2:15 AM,64.4,60.8,88,30.02,10.0,Calm,Calm,-,N/A,,Mostly Cloudy,0,2013-10-12 06:15:00
2:35 AM,62.6,60.8,94,30.01,10.0,Calm,Calm,-,N/A,,Mostly Cloudy,0,2013-10-12 06:35:00
2:55 AM,64.4,60.8,88,30.01,10.0,North,3.5,-,N/A,,Overcast,10,2013-10-12 06:55:00
3:15 AM,62.6,59.0,88,30.01,10.0,North,3.5,-,N/A,,Scattered Clouds,10,2013-10-12 07:15:00
3:35 AM,62.6,59.0,88,30.02,10.0,Calm,Calm,-,N/A,,Clear,0,2013-10-12 07:35:00
3:55 AM,60.8,59.0,94,30.02,10.0,Calm,Calm,-,N/A,,Clear,0,2013-10-12 07:55:00
4:15 AM,60.8,59.0,94,30.02,10.0,Calm,Calm,-,N/A,,Clear,0,2013-10-12 08:15:00
4:35 AM,59.0,57.2,94,30.02,7.0,Calm,Calm,-,N/A,,Clear,0,2013-10-12 08:35:00
4:55 AM,59.0,59.0,100,30.03,7.0,Calm,Calm,-,N/A,,Clear,0,2013-10-12 08:55:00
5:15 AM,59.0,57.2,94,30.04,1.5,Calm,Calm,-,N/A,,Mist,0,2013-10-12 09:15:00
5:35 AM,57.2,55.4,94,30.04,1.0,Calm,Calm,-,N/A,,Mist,0,2013-10-12 09:35:00
5:55 AM,59.0,55.4,88,30.05,2.5,Calm,Calm,-,N/A,,Clear,0,2013-10-12 09:55:00
6:15 AM,57.2,55.4,94,30.06,2.5,Calm,Calm,-,N/A,,Clear,0,2013-10-12 10:15:00
6:35 AM,57.2,55.4,94,30.06,1.8,Calm,Calm,-,N/A,,Mist,0,2013-10-12 10:35:00
6:55 AM,57.2,55.4,94,30.06,1.5,Calm,Calm,-,N/A,,Mist,0,2013-10-12 10:55:00
7:15 AM,55.4,55.4,100,30.07,0.8,Calm,Calm,-,N/A,,Mist,0,2013-10-12 11:15:00
7:35 AM,55.4,55.4,100,30.08,1.2,Calm,Calm,-,N/A,,Mist,0,2013-10-12 11:35:00
7:55 AM,57.2,55.4,94,30.08,10.0,Calm,Calm,-,N/A,,Clear,0,2013-10-12 11:55:00
8:55 AM,62.6,60.8,94,30.09,10.0,Calm,Calm,-,N/A,,Scattered Clouds,0,2013-10-12 12:55:00
9:55 AM,66.2,59.0,78,30.10,10.0,Calm,Calm,-,N/A,,Mostly Cloudy,0,2013-10-12 13:55:00
10:55 AM,69.8,59.0,68,30.11,10.0,NNW,5.8,-,N/A,,Mostly Cloudy,340,2013-10-12 14:55:00
11:55 AM,71.6,59.0,64,30.10,10.0,Calm,Calm,-,N/A,,Mostly Cloudy,0,2013-10-12 15:55:00
12:55 PM,71.6,57.2,60,30.09,10.0,NNW,5.8,-,N/A,,Overcast,330,2013-10-12 16:55:00
1:55 PM,71.6,59.0,64,30.08,10.0,NNE,5.8,-,N/A,,Overcast,20,2013-10-12 17:55:00
2:55 PM,71.6,59.0,64,30.07,10.0,NNW,5.8,-,N/A,,Overcast,330,2013-10-12 18:55:00
3:55 PM,73.4,59.0,61,30.08,10.0,NNW,4.6,-,N/A,,Overcast,340,2013-10-12 19:55:00
4:55 PM,73.4,59.0,61,30.08,10.0,North,5.8,-,N/A,,Overcast,350,2013-10-12 20:55:00
5:55 PM,71.6,59.0,64,30.09,10.0,NNW,4.6,-,N/A,,Overcast,340,2013-10-12 21:55:00
7:55 PM,69.8,60.8,73,30.11,10.0,NNE,5.8,-,N/A,,Overcast,20,2013-10-12 23:55:00
8:55 PM,68.0,60.8,78,30.12,10.0,NE,4.6,-,N/A,,Overcast,40,2013-10-13 00:55:00
9:15 PM,68.0,60.8,78,30.12,10.0,NNE,4.6,-,N/A,,Mostly Cloudy,20,2013-10-13 01:15:00
9:35 PM,68.0,60.8,78,30.13,10.0,NNE,5.8,-,N/A,,Overcast,20,2013-10-13 01:35:00
9:55 PM,66.2,60.8,83,30.13,10.0,North,5.8,-,N/A,,Mostly Cloudy,10,2013-10-13 01:55:00
10:15 PM,66.2,60.8,83,30.13,10.0,NNE,4.6,-,N/A,,Overcast,20,2013-10-13 02:15:00
10:35 PM,66.2,60.8,83,30.14,10.0,NNE,4.6,-,N/A,,Overcast,20,2013-10-13 02:35:00
10:55 PM,66.2,62.6,88,30.14,10.0,NNE,4.6,-,N/A,,Overcast,20,2013-10-13 02:55:00
11:15 PM,64.4,60.8,88,30.13,10.0,NE,3.5,-,N/A,,Overcast,40,2013-10-13 03:15:00
11:35 PM,64.4,60.8,88,30.13,10.0,Calm,Calm,-,N/A,,Scattered Clouds,0,2013-10-13 03:35:00
11:55 PM,64.4,60.8,88,30.14,10.0,Calm,Calm,-,N/A,,Mostly Cloudy,0,2013-10-13 03:55:00